Hourly Data Report for October 05, 2017

All times are specified in Local Standard Time (LST). Add 1 hour to adjust for Daylight Saving Time where and when it is observed.

SACHS HARBOUR CLIMATE
NORTHWEST TERRITORIES

71°59'33.000" N
125°15'15.000" W
87.50 m
2503648
71467
WSY

Download Data

Hourly Data (October 2017)
Hourly Data Report for October 5, 2017
Temp Definition
°C
Dew Point Temp Definition
°C
Rel Hum Definition
%
Wind Dir Definition
10's deg

Wind Spd Definition
km/h
Visibility Definition
km
Stn Press Definition
kPa
Hmdx Definition


Wind Chill Definition


Weather Definition


TIME
00:00 -7.1 -11.1 73 11 22   100.62   -15 LegendNANA
01:00 -6.0 -10.7 69 10 29   100.51   -14 LegendNANA
02:00 -6.2 -11.1 68 11 25   100.41   -14 LegendNANA
03:00 -6.2 -11.1 68 11 25   100.30   -14 LegendNANA
04:00 -5.5 -11.2 64 11 29   100.16   -14 LegendNANA
05:00 -5.1 -11.1 63 11 29   100.05   -13 LegendNANA
06:00 -5.8 -9.9 72 12 20   99.98   -13 LegendNANA
07:00 -5.1 -9.4 72 11 33   99.86   -13 LegendNANA
08:00 -4.6 -8.4 75 10 36   99.77   -13 LegendNANA
09:00 -3.8 -7.6 75 11 36   99.68   -12 LegendNANA
10:00 -2.7 -6.0 78 12 35   99.57   -11 LegendNANA
11:00 -2.3 -5.8 77 12 43   99.47   -11 LegendNANA
12:00 -2.0 -4.8 81 12 40   99.38   -10 LegendNANA
13:00 -1.7 -5.1 77 11 44   99.30   -10 LegendNANA
14:00 -1.0 -4.4 77 12 52   99.23   -10 LegendNANA
15:00 -0.8 -4.6 76 12 47   99.22   -9 LegendNANA
16:00 -0.9 -4.3 78 11 42   99.18   -9 LegendNANA
17:00 -1.1 -4.3 79 11 45   99.12   -9 LegendNANA
18:00 -1.1 -4.5 78 12 50   99.07   -10 LegendNANA
19:00 -1.5 -3.9 84 12 49   99.07   -10 LegendNANA
20:00 -2.1 -4.2 85 11 39   99.09   -10 LegendNANA
21:00 -2.2 -3.5 91 12 40   99.03   -10 LegendNANA
22:00 -2.2 -3.0 94 11 38   98.99   -10 LegendNANA
23:00 -2.1 -3.2 93 12 38   98.97   -10 LegendNANA

Notes on Data Quality.

Legend

  • E = Estimated
  • M = Missing
  • NA = Not Available
  • ‡ = Partner data that is not subject to review by the National Climate Archives
Date modified: